User: anonymous   Login
Location: Bijele Vode
(45.2833°N, 16.2000°E)
Time: 02:10:16
(UTC+00:00)
Language:

USA 186 - Orbit

View from above orbital plane
View from above orbital plane
View from above satellite
View from above satellite

Ground track
Ground track

The orbit data is extracted from the following two-line orbital elements,

1 28888U 05042A   21126.79298673 0.00023500  00000-0  10919-3 0    04
2 28888  96.8801 165.8196 0148059 109.8049 250.1949 15.68748511    08
Epoch (UTC): 06 May 2021 19:01:54
Eccentricity: 0.0148059
inclination: 96.8801°
perigee height: 262 km
apogee height: 462 km
right ascension of ascending node: 165.8196°
argument of perigee: 109.8049°
revolutions per day: 15.68748511
mean anomaly at epoch: 250.1949°
orbit number at epoch: 0

The dashed part of the orbit path shows where the satellite is in the earth's shadow,  

DLR